Time,TemperatureF,DewpointF,PressureIn,WindDirection,WindDirectionDegrees,WindSpeedMPH,WindSpeedGustMPH,Humidity,HourlyPrecipIn,Conditions,Clouds,dailyrainin,SoftwareType,DateUTC
2013-08-09 00:01:00,62.9,58.0,29.97,NNE,19,0.0,1.0,84,0.00,,---,0.00,VWS V14.01,2013-08-09 04:01:00,
2013-08-09 00:16:00,62.8,57.9,29.97,NNE,19,0.0,1.0,84,0.00,,---,0.00,VWS V14.01,2013-08-09 04:16:00,
2013-08-09 00:31:00,62.7,57.8,29.97,NNE,19,0.0,1.0,84,0.00,,---,0.00,VWS V14.01,2013-08-09 04:31:00,
2013-08-09 00:46:00,62.6,58.0,29.97,NNE,19,0.0,2.0,85,0.00,,---,0.00,VWS V14.01,2013-08-09 04:46:00,
2013-08-09 01:01:00,62.5,58.3,29.97,NNE,19,0.0,1.0,86,0.00,,---,0.00,VWS V14.01,2013-08-09 05:01:00,
2013-08-09 01:16:00,62.4,58.2,29.98,NNE,19,0.0,1.0,86,0.00,,---,0.00,VWS V14.01,2013-08-09 05:16:00,
2013-08-09 01:31:00,62.4,58.5,29.98,NNE,19,0.0,1.0,87,0.00,,---,0.00,VWS V14.01,2013-08-09 05:31:00,
2013-08-09 01:46:00,62.4,58.5,29.97,NNE,19,0.0,1.0,87,0.00,,---,0.00,VWS V14.01,2013-08-09 05:46:00,
2013-08-09 02:01:00,62.2,58.6,29.96,NNE,19,0.0,2.0,88,0.00,,---,0.00,VWS V14.01,2013-08-09 06:01:00,
2013-08-09 02:16:00,61.9,58.6,29.97,NNE,19,0.0,2.0,89,0.00,,---,0.00,VWS V14.01,2013-08-09 06:16:00,
2013-08-09 02:31:00,61.7,58.4,29.97,NNE,19,0.0,1.0,89,0.00,,---,0.00,VWS V14.01,2013-08-09 06:31:00,
2013-08-09 02:46:00,61.7,58.4,29.96,NNE,19,0.0,1.0,89,0.00,,---,0.00,VWS V14.01,2013-08-09 06:46:00,
2013-08-09 03:01:00,61.6,58.6,29.97,NNE,19,0.0,1.0,90,0.00,,---,0.00,VWS V14.01,2013-08-09 07:01:00,
2013-08-09 03:16:00,61.4,58.5,29.96,NNE,19,0.0,1.0,90,0.00,,---,0.00,VWS V14.01,2013-08-09 07:16:00,
2013-08-09 03:31:00,61.3,58.3,29.96,NNE,19,0.0,0.0,90,0.00,,---,0.00,VWS V14.01,2013-08-09 07:31:00,
2013-08-09 03:46:00,61.3,58.7,29.96,NNE,19,0.0,0.0,91,0.00,,---,0.00,VWS V14.01,2013-08-09 07:46:00,
2013-08-09 04:01:00,61.1,58.5,29.96,NNE,19,0.0,0.0,91,0.00,,---,0.00,VWS V14.01,2013-08-09 08:01:00,
2013-08-09 04:16:00,61.2,58.9,29.96,NNE,19,0.0,0.0,92,0.00,,---,0.00,VWS V14.01,2013-08-09 08:16:00,
2013-08-09 04:31:00,61.0,58.4,29.96,NNE,19,0.0,1.0,91,0.00,,---,0.00,VWS V14.01,2013-08-09 08:31:00,
2013-08-09 04:46:00,61.0,58.7,29.97,NNE,19,0.0,1.0,92,0.01,,---,0.01,VWS V14.01,2013-08-09 08:46:00,
2013-08-09 05:01:00,61.0,58.7,29.96,NNE,19,0.0,1.0,92,0.01,,---,0.01,VWS V14.01,2013-08-09 09:01:00,
2013-08-09 05:16:00,60.9,58.6,29.97,NNE,19,0.0,0.0,92,0.01,,---,0.01,VWS V14.01,2013-08-09 09:16:00,
2013-08-09 05:31:00,60.8,58.5,29.96,NNE,19,0.0,0.0,92,0.01,,---,0.01,VWS V14.01,2013-08-09 09:31:00,
2013-08-09 05:46:00,60.5,58.2,29.96,NNE,19,0.0,0.0,92,0.01,,---,0.01,VWS V14.01,2013-08-09 09:46:00,
2013-08-09 06:01:00,60.2,58.2,29.96,NNE,19,0.0,0.0,93,0.00,,---,0.01,VWS V14.01,2013-08-09 10:01:00,
2013-08-09 06:16:00,59.9,57.9,29.97,NNE,19,0.0,0.0,93,0.00,,---,0.01,VWS V14.01,2013-08-09 10:16:00,
2013-08-09 06:31:00,59.7,58.0,29.97,NNE,19,0.0,0.0,94,0.00,,---,0.01,VWS V14.01,2013-08-09 10:31:00,
2013-08-09 06:46:00,59.5,57.8,29.96,NNE,19,0.0,0.0,94,0.00,,---,0.01,VWS V14.01,2013-08-09 10:46:00,
2013-08-09 07:01:00,59.3,57.6,29.97,NNE,19,0.0,0.0,94,0.00,,---,0.01,VWS V14.01,2013-08-09 11:01:00,
2013-08-09 07:16:00,58.8,57.1,29.98,NW,306,0.0,1.0,94,0.00,,---,0.01,VWS V14.01,2013-08-09 11:16:00,
2013-08-09 07:31:00,58.8,57.4,29.98,NW,306,0.0,0.0,95,0.00,,---,0.01,VWS V14.01,2013-08-09 11:31:00,
2013-08-09 07:46:00,59.1,57.7,29.98,NW,306,0.0,0.0,95,0.00,,---,0.01,VWS V14.01,2013-08-09 11:46:00,
2013-08-09 08:01:00,59.3,57.9,29.99,NW,306,0.0,0.0,95,0.00,,---,0.01,VWS V14.01,2013-08-09 12:01:00,
2013-08-09 08:16:00,60.3,59.2,29.99,NW,306,0.0,3.0,96,0.00,,---,0.01,VWS V14.01,2013-08-09 12:16:00,
2013-08-09 08:31:00,61.7,60.3,29.99,NW,306,1.0,2.0,95,0.00,,---,0.01,VWS V14.01,2013-08-09 12:31:00,
2013-08-09 08:46:00,63.3,60.9,30.00,NW,306,2.0,5.0,92,0.00,,---,0.01,VWS V14.01,2013-08-09 12:46:00,
2013-08-09 09:01:00,64.4,61.1,30.00,NW,306,3.0,6.0,89,0.00,,---,0.01,VWS V14.01,2013-08-09 13:01:00,
2013-08-09 09:16:00,65.4,60.8,30.00,NW,306,3.0,5.0,85,0.00,,---,0.01,VWS V14.01,2013-08-09 13:16:00,
2013-08-09 09:31:00,66.8,61.5,30.00,NW,306,0.0,4.0,83,0.00,,---,0.01,VWS V14.01,2013-08-09 13:31:00,
2013-08-09 09:46:00,68.3,61.5,29.99,NW,306,0.0,3.0,79,0.00,,---,0.01,VWS V14.01,2013-08-09 13:46:00,
2013-08-09 10:01:00,69.5,62.0,29.99,WNW,300,0.0,2.0,77,0.00,,---,0.01,VWS V14.01,2013-08-09 14:01:00,
2013-08-09 10:16:00,69.6,62.1,29.99,WNW,300,2.0,5.0,77,0.00,,---,0.01,VWS V14.01,2013-08-09 14:16:00,
2013-08-09 10:45:00,70.4,61.3,30.00,WNW,292,2.0,6.0,73,0.00,,---,0.01,VWS V14.01,2013-08-09 14:45:00,
2013-08-09 11:31:00,72.9,61.7,30.00,NW,317,1.0,5.0,68,0.00,,---,0.01,VWS V14.01,2013-08-09 15:31:00,
2013-08-09 11:46:00,73.4,60.9,30.00,NW,314,3.0,5.0,65,0.00,,---,0.01,VWS V14.01,2013-08-09 15:46:00,
2013-08-09 12:01:00,72.9,59.1,30.00,WNW,293,4.0,8.0,62,0.00,,---,0.01,VWS V14.01,2013-08-09 16:01:00,
2013-08-09 12:16:00,73.3,60.8,30.00,WNW,292,4.0,8.0,65,0.00,,---,0.01,VWS V14.01,2013-08-09 16:16:00,
2013-08-09 12:31:00,73.9,61.0,30.00,WNW,298,1.0,8.0,64,0.00,,---,0.01,VWS V14.01,2013-08-09 16:31:00,
2013-08-09 12:46:00,74.2,58.5,30.00,NW,307,4.0,9.0,58,0.00,,---,0.01,VWS V14.01,2013-08-09 16:46:00,
2013-08-09 13:01:00,74.8,59.5,30.00,NW,306,4.0,6.0,59,0.00,,---,0.01,VWS V14.01,2013-08-09 17:01:00,
2013-08-09 13:16:00,75.0,58.8,30.00,WNW,283,4.0,8.0,57,0.00,,---,0.01,VWS V14.01,2013-08-09 17:16:00,
2013-08-09 13:31:00,74.9,58.7,30.00,WNW,292,1.0,9.0,57,0.01,,---,0.02,VWS V14.01,2013-08-09 17:31:00,
2013-08-09 13:46:00,75.5,59.2,30.00,WNW,297,3.0,9.0,57,0.01,,---,0.02,VWS V14.01,2013-08-09 17:46:00,
2013-08-09 14:01:00,75.8,59.5,30.01,WNW,300,2.0,7.0,57,0.01,,---,0.02,VWS V14.01,2013-08-09 18:01:00,
2013-08-09 14:16:00,75.9,58.6,30.00,NW,306,2.0,7.0,55,0.01,,---,0.02,VWS V14.01,2013-08-09 18:16:00,
2013-08-09 14:31:00,74.9,57.7,30.00,WNW,285,5.0,7.0,55,0.01,,---,0.02,VWS V14.01,2013-08-09 18:31:00,
2013-08-09 14:46:00,75.7,58.9,29.99,WNW,294,2.0,8.0,56,0.00,,---,0.02,VWS V14.01,2013-08-09 18:46:00,
2013-08-09 15:01:00,75.5,59.2,29.99,WNW,302,5.0,10.0,57,0.00,,---,0.02,VWS V14.01,2013-08-09 19:01:00,
2013-08-09 15:16:00,76.0,59.7,30.00,WNW,299,3.0,8.0,57,0.00,,---,0.02,VWS V14.01,2013-08-09 19:16:00,
2013-08-09 15:31:00,76.4,62.0,29.99,NW,313,2.0,7.0,61,0.00,,---,0.02,VWS V14.01,2013-08-09 19:31:00,
2013-08-09 15:46:00,76.6,60.7,29.99,West,271,7.0,7.0,58,0.00,,---,0.02,VWS V14.01,2013-08-09 19:46:00,
2013-08-09 16:01:00,76.5,63.0,29.99,West,264,3.0,9.0,63,0.00,,---,0.02,VWS V14.01,2013-08-09 20:01:00,
2013-08-09 16:16:00,75.5,61.1,29.99,West,271,5.0,10.0,61,0.00,,---,0.02,VWS V14.01,2013-08-09 20:16:00,
2013-08-09 16:31:00,76.1,61.7,29.99,NW,304,4.0,9.0,61,0.00,,---,0.02,VWS V14.01,2013-08-09 20:31:00,
2013-08-09 16:46:00,76.0,63.4,29.99,West,281,3.0,8.0,65,0.00,,---,0.02,VWS V14.01,2013-08-09 20:46:00,
2013-08-09 17:01:00,76.0,60.7,29.99,West,274,1.0,9.0,59,0.00,,---,0.02,VWS V14.01,2013-08-09 21:01:00,
2013-08-09 17:16:00,76.2,61.3,29.99,West,273,1.0,6.0,60,0.00,,---,0.02,VWS V14.01,2013-08-09 21:16:00,
2013-08-09 17:31:00,76.1,62.2,29.99,WNW,287,5.0,5.0,62,0.00,,---,0.02,VWS V14.01,2013-08-09 21:31:00,
2013-08-09 17:46:00,76.2,63.1,29.99,WNW,287,4.0,6.0,64,0.00,,---,0.02,VWS V14.01,2013-08-09 21:46:00,
2013-08-09 18:01:00,75.9,63.3,29.98,WNW,287,0.0,5.0,65,0.00,,---,0.02,VWS V14.01,2013-08-09 22:01:00,
2013-08-09 18:16:00,75.6,62.6,29.98,WNW,287,1.0,4.0,64,0.00,,---,0.02,VWS V14.01,2013-08-09 22:16:00,
2013-08-09 18:31:00,76.4,63.3,29.98,WNW,286,2.0,5.0,64,0.00,,---,0.02,VWS V14.01,2013-08-09 22:31:00,
2013-08-09 18:46:00,76.6,62.6,29.98,WNW,286,0.0,5.0,62,0.00,,---,0.02,VWS V14.01,2013-08-09 22:46:00,
2013-08-09 19:01:00,76.2,63.1,29.98,WNW,286,1.0,3.0,64,0.00,,---,0.02,VWS V14.01,2013-08-09 23:01:00,
2013-08-09 19:16:00,75.9,64.6,29.97,WNW,286,0.0,2.0,68,0.00,,---,0.02,VWS V14.01,2013-08-09 23:16:00,
2013-08-09 19:31:00,76.0,64.3,29.97,WNW,286,0.0,3.0,67,0.00,,---,0.02,VWS V14.01,2013-08-09 23:31:00,
2013-08-09 19:46:00,76.5,63.9,29.97,WNW,287,1.0,3.0,65,0.00,,---,0.02,VWS V14.01,2013-08-09 23:46:00,
2013-08-09 20:01:00,76.1,63.5,29.98,WNW,287,0.0,4.0,65,0.00,,---,0.02,VWS V14.01,2013-08-10 00:01:00,
2013-08-09 20:16:00,75.3,64.4,29.98,WNW,287,1.0,3.0,69,0.00,,---,0.02,VWS V14.01,2013-08-10 00:16:00,
2013-08-09 20:31:00,74.7,64.3,29.98,WNW,287,0.0,2.0,70,0.00,,---,0.02,VWS V14.01,2013-08-10 00:31:00,
2013-08-09 20:46:00,74.0,64.8,29.99,WNW,286,0.0,2.0,73,0.00,,---,0.02,VWS V14.01,2013-08-10 00:46:00,
2013-08-09 21:01:00,73.1,65.1,29.99,WNW,286,0.0,1.0,76,0.00,,---,0.02,VWS V14.01,2013-08-10 01:01:00,
2013-08-09 21:16:00,72.2,64.6,29.99,WNW,287,0.0,1.0,77,0.00,,---,0.02,VWS V14.01,2013-08-10 01:16:00,
2013-08-09 21:31:00,71.2,64.7,29.99,WNW,287,0.0,0.0,80,0.00,,---,0.02,VWS V14.01,2013-08-10 01:31:00,
2013-08-09 21:46:00,70.4,64.3,29.99,WNW,287,0.0,0.0,81,0.00,,---,0.02,VWS V14.01,2013-08-10 01:46:00,
2013-08-09 22:01:00,69.7,63.6,29.99,WNW,287,0.0,0.0,81,0.01,,---,0.03,VWS V14.01,2013-08-10 02:01:00,
2013-08-09 22:16:00,69.2,63.5,30.00,WNW,287,0.0,0.0,82,0.01,,---,0.03,VWS V14.01,2013-08-10 02:16:00,
2013-08-09 22:31:00,68.6,63.9,30.00,WNW,287,0.0,0.0,85,0.01,,---,0.03,VWS V14.01,2013-08-10 02:31:00,
2013-08-09 22:46:00,68.4,63.4,30.00,WNW,286,0.0,0.0,84,0.01,,---,0.03,VWS V14.01,2013-08-10 02:46:00,
2013-08-09 23:01:00,67.8,63.5,30.00,WNW,287,0.0,0.0,86,0.01,,---,0.03,VWS V14.01,2013-08-10 03:01:00,
2013-08-09 23:16:00,67.8,63.8,30.00,WNW,287,0.0,1.0,87,0.00,,---,0.03,VWS V14.01,2013-08-10 03:16:00,
2013-08-09 23:31:00,68.4,63.7,30.00,WNW,286,0.0,2.0,85,0.00,,---,0.03,VWS V14.01,2013-08-10 03:31:00,
2013-08-09 23:46:00,69.1,64.1,30.00,WNW,286,1.0,2.0,84,0.00,,---,0.03,VWS V14.01,2013-08-10 03:46:00,